Location: Fishcreek Rd Observing Site
(41.1865°N, 81.4271°W)
Time: 11:40:18
(UTC-04:00)

Iridium 75 - Visible Passes

Search period start: 27 March 2015 00:00
Search period end: 06 April 2015 00:00
Orbit: 776 x 779 km, 86.4° (Epoch: 26 March)

Date Brightness Start Highest point End Pass type
(mag) Time Alt. Az. Time Alt. Az. Time Alt. Az.
27 Mar 9.0 02:28:00 12° NNE 02:28:00 12° NNE 02:28:18 10° NNE visible
28 Mar 8.6 03:34:58 12° NNW 03:34:58 12° NNW 03:35:23 10° NNW visible
29 Mar 8.7 03:01:29 14° N 03:01:29 14° N 03:02:07 10° N visible
30 Mar 8.8 02:27:59 13° N 02:27:59 13° N 02:28:33 10° N visible
31 Mar 9.0 01:54:29 11° NNE 01:54:29 11° NNE 01:54:41 10° NNE visible
31 Mar 8.7 03:34:56 11° NNW 03:34:56 11° NNW 03:35:07 10° NNW visible
01 Apr 8.6 03:01:26 13° N 03:01:26 13° N 03:02:05 10° N visible
02 Apr 8.7 02:27:55 14° N 02:27:55 14° N 02:28:41 10° N visible
03 Apr 8.8 01:54:23 13° NNE 01:54:23 13° NNE 01:55:00 10° NNE visible
04 Apr 8.9 01:20:52 11° NNE 01:20:52 11° NNE 01:20:59 10° NNE visible
04 Apr 8.6 03:01:19 13° NNW 03:01:19 13° NNW 03:01:54 10° NNW visible
05 Apr 8.6 02:27:47 15° N 02:27:47 15° N 02:28:43 10° N visible
